Regional Weather Roundup
Issued by NWS Little Rock, AR

Home | Current Version | Previous Version | Graphics & Text | Print | Product List | Glossary On
Versions: 1 2 3 4 5 6 7 8 9 10 11 12 13 14 15 16 17 18 19 20 21 22 23 24 25 26 27 28 29 30 31 32 33 34 35 36 37 38 39 40 41 42 43 44 45 46 47 48 49 50
000
ASUS44 KLZK 210705
RWRLZK

WEATHER ROUNDUP FOR ARKANSAS
NATIONAL WEATHER SERVICE LITTLE ROCK AR
200 AM CDT TUE OCT 21 2014

NOTE: "FAIR" INDICATES FEW OR NO CLOUDS BELOW 12,000 FEET WITH NO
SIGNIFICANT WEATHER AND/OR OBSTRUCTIONS TO VISIBILITY.

ARZ001-003-010-029-210800-
NORTHWEST ARKANSAS

CITY           SKY/WX    TMP DP  RH WIND       PRES   REMARKS
FAYETTEVILLE   FOG       51  51 100 CALM      30.09S VSB 1/4
FORT SMITH     CLOUDY    60  58  92 CALM      30.06R
HARRISON       CLEAR     55  54  96 N5        30.08R FOG
BENTONVILLE    CLOUDY    50  46  87 CALM      30.09S VSB<1/4
ROGERS         CLEAR     52  51  97 SE3       30.10R
SILOAM SPGS    CLOUDY    50  45  81 CALM      30.10R VSB 1/4
HIGHFILL       FOG       49  49 100 CALM      30.08S VSB 1/4
$$

ARZ004-005-016-210800-
NORTH CENTRAL ARKANSAS

CITY           SKY/WX    TMP DP  RH WIND       PRES   REMARKS
BATESVILLE     CLEAR     57  55  94 W3        30.05R
FLIPPIN        CLEAR     54  48  82 CALM      30.08R VSB 1
MTN HOME       CLEAR     58  57  97 VRB3      30.07R FOG
$$

ARZ040-041-210800-
WEST CENTRAL ARKANSAS

CITY           SKY/WX    TMP DP  RH WIND       PRES   REMARKS
MENA           CLEAR     55  55 100 CALM      30.06S
MOUNT IDA      CLOUDY    54  53  97 CALM      30.04R FOG
$$

ARZ009-017-025-026-028-210800-
NORTHEAST ARKANSAS

CITY           SKY/WX    TMP DP  RH WIND       PRES   REMARKS
CORNING        FAIR      55  55 100 N6        30.05R
JONESBORO      CLEAR     60  57  89 NW5       30.03R
NEWPORT        CLEAR     57  56  97 NW3       30.05R
WALNUT RIDGE   CLEAR     55  52  88 NW5       30.04R
BLYTHEVILLE    CLEAR     55  53  93 CALM      30.03R
$$

ARZ022-023-033-042-044-210800-
CENTRAL ARKANSAS

CITY           SKY/WX    TMP DP  RH WIND       PRES   REMARKS
LITTLE ROCK    CLEAR     57  53  86 W5        30.05S
N LITTLE ROCK    N/A     60  59  97 W5        30.05S
JACKSONVILLE   CLEAR     53  50  92 W3        30.04S
SEARCY         FOG       53  52  96 CALM      30.05S VSB 1
HOT SPRINGS    CLEAR     54  52  93 CALM      30.06S
RUSSELLVILLE   CLEAR     54  52  93 CALM      30.06R FOG
$$

ARZ036-210800-
EAST ARKANSAS

CITY           SKY/WX    TMP DP  RH WIND       PRES   REMARKS
WEST MEMPHIS   CLEAR     53  52  96 CALM      30.02S
$$

ARZ050-053-066-070-073-210800-
SOUTHWEST ARKANSAS

CITY           SKY/WX    TMP DP  RH WIND       PRES   REMARKS
ARKADELPHIA    FAIR      56  56 100 CALM      30.06R
CAMDEN         CLEAR     54  52  94 N3        30.05S FOG
TEXARKANA      CLEAR     59  55  87 CALM      30.05S
EL DORADO      PTCLDY    55  54  96 CALM      30.05S
DE QUEEN       FOG       55  55 100 CALM      30.04R VSB 1/4
$$

ARZ056-057-069-210800-
SOUTHEAST ARKANSAS

CITY           SKY/WX    TMP DP  RH WIND       PRES   REMARKS
PINE BLUFF     CLOUDY    59  56  89 CALM      30.05S
STUTTGART      CLEAR     57  54  88 W3        30.05S
MONTICELLO     CLEAR     55  53  93 CALM      30.04F

$$





USA.gov is the U.S. government's official web portal to all federal, state and local government web resources and services.